Location: Newark
(13.6797°N, 8.5297°E)
Time: 05:04:03
(UTC+00:00)

Altair - Pass Details

Date: 31 January 2020
Orbit: 1502 x 1682 km, 47.2° (Epoch: 17 February)

Event Time Altitude Azimuth Distance (km) Brightness Sun altitude
Rises 03:04:08 0° 202° (SSW) 4,697 - -40.6°
Exits shadow 03:06:30 - 197° (SSW) 3,992 9.6 -40.1°
Reaches altitude 10° 03:07:23 10° 195° (SSW) 3,737 9.5 -39.9°
Maximum altitude 03:16:09 42° 127° (SE) 2,147 8.4 -37.8°
Drops below altitude 10° 03:25:12 10° 61° (ENE) 3,872 10.1 -35.6°
Sets 03:28:35 0° 54° (NE) 4,881 10.6 -34.8°
